TimeAKST,TemperatureF,Dew PointF,Humidity,Sea Level PressureIn,VisibilityMPH,Wind Direction,Wind SpeedMPH,Gust SpeedMPH,PrecipitationIn,Events,Conditions,WindDirDegrees,DateUTC
12:31 AM,28.4,26.6,93,29.76,10.0,WNW,9.2,-,N/A,,Overcast,290,2011-11-10 09:31:00
12:54 AM,27.0,26.1,96,29.76,10.0,WNW,10.4,-,N/A,,Overcast,300,2011-11-10 09:54:00
1:54 AM,28.0,27.0,96,29.74,10.0,WSW,4.6,-,N/A,,Overcast,250,2011-11-10 10:54:00
2:54 AM,28.0,27.0,96,29.73,10.0,WNW,8.1,-,N/A,,Overcast,290,2011-11-10 11:54:00
3:22 AM,28.4,26.6,93,29.71,2.0,WNW,10.4,-,0.00,Snow,Light Snow,290,2011-11-10 12:22:00
3:54 AM,28.0,26.1,92,29.71,2.5,WNW,11.5,-,0.00,Snow,Light Snow,290,2011-11-10 12:54:00
4:12 AM,28.4,26.6,93,29.69,4.0,WNW,11.5,-,0.00,Snow,Light Snow,290,2011-11-10 13:12:00
4:54 AM,28.0,26.1,92,29.69,7.0,WNW,11.5,-,0.01,,Overcast,290,2011-11-10 13:54:00
5:54 AM,28.0,26.1,92,29.68,10.0,WNW,11.5,-,0.00,,Overcast,290,2011-11-10 14:54:00
6:54 AM,28.0,26.1,92,29.66,6.0,WNW,12.7,-,0.00,,Overcast,290,2011-11-10 15:54:00
7:54 AM,28.9,28.0,96,29.63,9.0,West,9.2,-,0.00,,Overcast,280,2011-11-10 16:54:00
8:54 AM,28.9,28.0,96,29.61,10.0,WNW,8.1,-,0.00,,Overcast,300,2011-11-10 17:54:00
9:54 AM,30.0,28.9,96,29.57,10.0,NW,3.5,-,0.00,,Overcast,310,2011-11-10 18:54:00
10:54 AM,36.0,34.0,93,29.53,10.0,ENE,11.5,19.6,0.00,Rain,Light Rain,70,2011-11-10 19:54:00
11:54 AM,37.0,34.0,89,29.50,10.0,East,10.4,18.4,0.00,Rain,Light Rain,80,2011-11-10 20:54:00
12:54 PM,36.0,34.0,93,29.46,10.0,East,9.2,18.4,0.00,Rain,Light Rain,80,2011-11-10 21:54:00
1:54 PM,37.0,34.0,89,29.40,10.0,East,11.5,23.0,0.01,Rain,Light Rain,80,2011-11-10 22:54:00
2:54 PM,36.0,33.1,89,29.36,6.0,ENE,12.7,24.2,0.05,Rain,Light Rain,70,2011-11-10 23:54:00
3:54 PM,36.0,34.0,93,29.32,6.0,ENE,12.7,19.6,0.06,Rain,Light Rain,70,2011-11-11 00:54:00
4:54 PM,36.0,33.1,89,29.30,5.0,ENE,13.8,27.6,0.08,Rain,Light Rain,70,2011-11-11 01:54:00
5:24 PM,35.6,33.8,93,29.28,6.0,ENE,12.7,20.7,0.01,Rain,Light Rain,70,2011-11-11 02:24:00
5:54 PM,37.0,34.0,89,29.29,8.0,ENE,11.5,19.6,0.01,Rain,Light Rain,60,2011-11-11 02:54:00
6:54 PM,36.0,35.1,97,29.29,4.0,East,4.6,-,0.01,Rain,Light Rain,100,2011-11-11 03:54:00
7:35 PM,33.8,32.0,93,29.29,5.0,WNW,8.1,-,0.01,Snow,Light Snow,290,2011-11-11 04:35:00
7:39 PM,32.0,32.0,100,29.29,2.5,WNW,9.2,-,0.01,Snow,Light Snow,300,2011-11-11 04:39:00
7:49 PM,33.8,32.0,93,29.29,2.5,WNW,9.2,-,0.02,Snow,Light Snow,290,2011-11-11 04:49:00
7:54 PM,32.0,32.0,100,29.30,2.0,WNW,10.4,-,0.02,Snow,Light Snow,290,2011-11-11 04:54:00
8:03 PM,32.0,32.0,100,29.29,1.8,WNW,9.2,-,0.01,Snow,Light Snow,290,2011-11-11 05:03:00
8:54 PM,33.1,32.0,96,29.32,1.8,WNW,6.9,-,0.04,Snow,Light Snow,300,2011-11-11 05:54:00
9:05 PM,32.0,32.0,100,29.31,1.8,WNW,8.1,-,0.00,Snow,Light Snow,290,2011-11-11 06:05:00
9:13 PM,32.0,32.0,100,29.32,2.0,West,9.2,-,0.00,Snow,Light Snow,280,2011-11-11 06:13:00
9:24 PM,32.0,30.2,93,29.32,1.8,WNW,9.2,-,0.01,Snow,Light Snow,300,2011-11-11 06:24:00
9:54 PM,32.0,30.9,96,29.34,1.2,WNW,11.5,-,0.02,Snow,Light Snow,290,2011-11-11 06:54:00
10:19 PM,32.0,30.2,93,29.35,1.0,WNW,11.5,-,0.01,Snow,Light Snow,300,2011-11-11 07:19:00
10:41 PM,33.8,32.0,93,29.36,2.0,WNW,11.5,-,0.02,Snow,Light Snow,300,2011-11-11 07:41:00
10:54 PM,33.1,32.0,96,29.37,2.5,NW,12.7,-,0.02,Snow,Light Snow,310,2011-11-11 07:54:00
11:01 PM,33.8,32.0,93,29.36,3.0,WNW,11.5,-,0.00,Snow,Light Snow,300,2011-11-11 08:01:00
11:16 PM,33.8,32.0,93,29.37,5.0,WNW,10.4,-,0.00,Snow,Light Snow,300,2011-11-11 08:16:00
11:54 PM,33.1,32.0,96,29.40,3.0,NW,16.1,21.9,0.01,Snow,Light Snow,310,2011-11-11 08:54:00